{"data":{"norad_id":67356,"epoch":"2026-09-19T13:57:32.535648Z","epoch_age_seconds":154684,"freshness":"FRESH","line1":"1 67356U 26003Y   26262.58162657  .00010259  00000+0  38171-3 0  9995","line2":"2 67356  43.0018 212.3709 0001459 265.0786  94.9899 15.27588805 38471","mean_motion":15.27588805,"eccentricity":0.0001459,"inclination_deg":43.0018,"raan_deg":212.3709,"arg_perigee_deg":265.0786,"mean_anomaly_deg":94.9899,"bstar":0.00038171,"rev_number":3847,"period_min":94.266205361462,"perigee_km":482.02168762398,"apogee_km":484.02377403344,"semimajor_km":6861.1597308287,"source":"CELESTRAK","updated_at":"2026-09-20T09:00:43.516496Z"}}